Location: Newark
(13.8117°N, 3.6025°W)
Time: 06:14:48
(UTC+00:00)

Explorer 11/Cluster Stage 4 - Pass Details

Date: 02 September 2019
Orbit: 467 x 1260 km, 28.8° (Epoch: 15 September)

Event Time Altitude Azimuth Distance (km) Brightness Sun altitude
Rises 09:33:08 0° 304° (NW) 3,606 9.6 50.1°
Reaches altitude 10° 09:36:03 10° 316° (NW) 2,787 9.2 50.8°
Maximum altitude 09:41:54 28° 13° (NNE) 1,980 9.1 52.2°
Drops below altitude 10° 09:48:28 10° 69° (ENE) 3,165 10.4 53.8°
Sets 09:52:00 0° 80° (E) 4,180 10.8 54.6°
